User: anonymous   Login
Location: Caltech
(34.1382°N, 118.1253°W)
Time: 21:07:08
(UTC-07:00)
Language:

Meteor 2-4 Rocket - Orbit

View from above orbital plane
View from above orbital plane
View from above satellite
View from above satellite

Ground track
Ground track

The orbit data is extracted from the following two-line orbital elements,

1 11289U 79021B   17114.84385972 -.00000171 +00000-0 -98541-4 0  9992
2 11289 081.2485 216.1812 0075914 025.5633 334.9261 14.11556856963044
Epoch (UTC): 24 April 2017 20:15:09
Eccentricity: 0.0075914
inclination: 81.2485°
perigee height: 799 km
apogee height: 909 km
right ascension of ascending node: 216.1812°
argument of perigee: 25.5633°
revolutions per day: 14.11556856
mean anomaly at epoch: 334.9261°
orbit number at epoch: 96304

The dashed part of the orbit path shows where the satellite is in the earth's shadow,  

DLR